Этрек

Туркменистан     37°39′46″N   54°46′07″E
В апреле 2022 года жителям России запретили посещать сайт meteo.paraplan.net по решению Генеральной прокуратуры. Аудитория сайта уменьшилась в 10 раз. Владельцы сайта не видят смысла в поддержке погодного сервера в таких условиях. Сайт будет закрыт в октябре.
темп.,
°C
ветер,
м/с
пор.,
м/с
влажн.,
%
обл.,
%
осадки,
мм/ч
давл.,
гПа
погр.,
м
3 октября, пн
пн323:00+22всв610170 0.0 1013173
02:00+20св59200 0.0 1011123
05:00+19всв58210 0.0 101095
08:00+19св57210 0.0 1010105
11:00+27всв67170 0.0 1010420
14:00+32св65124 0.0 10081058
17:00+33св66103 0.0 10071086
20:00+27св581319 0.0 100995
4 октября, вт
вт423:00+24св58152 0.0 101092
02:00+22ссв56161 0.0 101065
05:00+21ссв33175 0.0 101233
08:00+21св11191 0.0 101412
11:00+26юз23135 0.0 1015370
14:00+30зсз11115 0.0 1014700
17:00+32с23110 0.0 1013901
20:00+28с22160 0.0 101411
5 октября, ср
ср523:00+25св33180 0.0 101515
02:00+24всв22200 0.0 101512
05:00+23ююв22260 0.0 101612
08:00+22вюв22320 0.0 101711
11:00+28в00200 0.0 1017379
14:00+32сз21140 0.0 1016824
17:00+34зсз22130 0.0 10151077
20:00+29з44180 0.0 101631
6 октября, чт
чт623:00+25зсз33250 0.0 101630
02:00+23юз33370 0.0 101623
05:00+22ю33460 0.0 101619
08:00+22ю33520 0.0 101621
11:00+28юз44360 0.0 1017577
14:00+32зюз55240 0.0 10151242
17:00+31зюз65160 0.0 10151033
20:00+24зюз69360 0.0 1017208
7 октября, пт
пт723:00+22юз57480 0.0 1018147
02:00+20юз44560 0.0 101953
05:00+20юз45710 0.0 101960
08:00+20ююз46720 0.0 102098
11:00+25зюз67460 0.0 10211192
14:00+28зюз66370 0.0 10201573
17:00+27з55390 0.0 10191498
20:00+23з56580 0.0 1020214